DW8397 Weather Reports


time (UTC)temp
C
wind
direction
speed
KPH
gust
KPH
rain 1hr
cm
rain 24hr
cm
rain mn
cm
humidity
%
barometer
mb
20260831151512 22 211 0.0 0.0 0.00 0.00 0.00 70 1018.9
20260831150010 22 285 0.0 0.0 0.00 0.00 0.00 70 1018.8
20260831144510 21 191 0.0 0.0 0.00 0.00 0.00 70 1019.0
20260831143106 20 151 0.0 0.0 0.00 0.00 0.00 72 1019.0
20260831141607 20 171 0.0 0.0 0.00 0.00 0.00 77 1019.1
20260831140050 19 210 0.0 0.0 0.00 0.00 0.00 82 1019.1
20260831134550 18 189 0.0 0.0 0.00 0.00 0.00 88 1019.2
20260831133041 16 188 0.0 0.0 0.00 0.00 0.00 88 1019.2
20260831131537 15 188 0.0 0.0 0.00 0.00 0.00 87 1019.0
20260831130033 14 292 0.0 0.0 0.00 0.00 0.00 88 1019.1
20260831124529 13 193 0.0 0.0 0.00 0.00 0.00 88 1019.0
20260831123025 12 193 0.0 0.0 0.00 0.00 0.00 88 1019.1
20260831121524 11 195 0.0 0.0 0.00 0.00 0.00 89 1019.2
20260831120034 11 319 0.0 0.0 0.00 0.00 0.00 89 1019.1
20260831114530 11 319 0.0 0.0 0.00 0.00 0.00 89 1019.3
20260831113019 11 319 0.0 0.0 0.00 0.00 0.00 89 1019.1
20260831111518 11 319 0.0 0.0 0.00 0.00 0.00 89 1019.0
20260831110016 11 319 0.0 0.0 0.00 0.00 0.00 89 1018.9
20260831104514 11 319 0.0 0.0 0.00 0.00 0.00 89 1018.7
20260831103012 11 319 0.0 0.0 0.00 0.00 0.00 89 1018.6
20260831101510 11 319 0.0 0.0 0.00 0.00 0.00 89 1018.6
20260831100008 11 319 0.0 0.0 0.00 0.00 0.00 89 1018.5
20260831094506 12 319 0.0 0.0 0.00 0.00 0.00 89 1018.4
20260831093010 12 319 0.0 0.0 0.00 0.00 0.00 89 1018.4
20260831091507 12 319 0.0 0.0 0.00 0.00 0.00 89 1018.2
20260831090100 12 319 0.0 0.0 0.00 0.00 0.00 89 1018.1
20260831084608 13 319 0.0 0.0 0.00 0.00 0.00 89 1017.9
20260831083105 13 319 0.0 0.0 0.00 0.00 0.00 89 1017.8
20260831081554 13 321 0.0 8.0 0.00 0.00 0.00 89 1017.7
20260831080052 13 329 0.0 8.0 0.00 0.00 0.00 89 1017.6
20260831074550 13 23 0.0 0.0 0.00 0.00 0.00 89 1017.5
20260831073054 14 34 0.0 0.0 0.00 0.00 0.00 89 1017.4
20260831071546 14 34 0.0 0.0 0.00 0.00 0.00 89 1017.6
20260831070045 15 34 0.0 0.0 0.00 0.00 0.00 89 1017.4
20260831064544 15 34 0.0 0.0 0.00 0.00 0.00 89 1017.4
20260831063042 15 34 0.0 0.0 0.00 0.00 0.00 89 1017.4
20260831061541 15 12 0.0 0.0 0.00 0.00 0.00 89 1017.3
20260831060045 15 12 0.0 0.0 0.00 0.00 0.00 89 1017.5
20260831054538 16 11 0.0 0.0 0.00 0.00 0.00 89 1017.6
20260831053038 16 11 0.0 0.0 0.00 0.00 0.00 89 1017.5
20260831051538 15 13 0.0 0.0 0.00 0.00 0.00 89 1017.5
20260831050036 15 5 0.0 0.0 0.00 0.00 0.00 89 1017.5
20260831044534 15 5 0.0 0.0 0.00 0.00 0.00 89 1017.4
20260831043033 16 5 0.0 0.0 0.00 0.00 0.00 89 1017.3
20260831041532 16 13 0.0 0.0 0.00 0.00 0.00 89 1017.3
20260831040032 16 13 0.0 0.0 0.00 0.00 0.00 89 1017.0
20260831034529 16 355 0.0 0.0 0.00 0.00 0.00 89 1017.1
20260831033035 16 331 0.0 0.0 0.00 0.00 0.00 88 1017.2
20260831031530 16 331 0.0 0.0 0.00 0.00 0.00 88 1017.1
20260831030028 17 284 0.0 0.0 0.00 0.00 0.00 88 1017.2
20260831024527 17 283 0.0 0.0 0.00 0.00 0.00 87 1017.1
20260831023027 17 234 0.0 0.0 0.00 0.00 0.00 87 1017.0
20260831021527 17 238 0.0 0.0 0.00 0.00 0.00 87 1017.1
20260831020026 17 345 0.0 0.0 0.00 0.00 0.00 87 1017.1
20260831014525 17 130 0.0 0.0 0.00 0.00 0.00 86 1017.0
20260831013025 18 130 0.0 0.0 0.00 0.00 0.00 86 1016.8
20260831011525 18 336 0.0 0.0 0.00 0.00 0.00 85 1016.7
20260831010025 18 274 0.0 0.0 0.00 0.00 0.00 85 1016.5
20260831004523 18 187 0.0 12.9 0.00 0.00 0.00 85 1016.4
20260831003022 18 258 0.0 20.9 0.00 0.00 0.00 86 1016.2
20260831001523 18 281 0.0 0.0 0.00 0.00 0.00 86 1015.8
20260831000024 18 317 0.0 12.9 0.00 0.00 0.00 86 1016.0
20260830234529 18 304 0.0 8.0 0.00 0.00 0.00 87 1015.7
20260830233021 18 225 0.0 6.4 0.00 0.00 0.00 86 1015.5
20260830231520 19 283 0.0 3.2 0.00 0.00 0.00 85 1015.3
20260830230020 20 300 0.0 4.8 0.00 0.00 0.00 83 1015.3
20260830224520 20 309 0.0 4.8 0.00 0.00 0.00 80 1015.3
20260830223020 20 236 0.0 12.9 0.00 0.00 0.00 78 1015.6
20260830221519 20 298 0.0 11.3 0.00 0.00 0.00 78 1015.6
20260830220020 20 260 0.0 11.3 0.00 0.00 0.00 77 1015.5
20260830214519 20 212 0.0 12.9 0.00 0.00 0.00 77 1015.4
20260830213017 21 173 0.0 9.7 0.00 0.00 0.00 77 1015.1
20260830211516 21 209 0.0 9.7 0.00 0.00 0.00 76 1015.4
20260830210015 21 181 0.0 11.3 0.00 0.00 0.00 75 1015.4
20260830204514 21 209 0.0 8.0 0.00 0.00 0.00 74 1015.5
20260830203032 22 213 3.2 11.3 0.00 0.00 0.00 73 1015.6
20260830201514 22 196 0.0 8.0 0.00 0.00 0.00 72 1015.6
20260830200017 22 215 4.8 11.3 0.00 0.00 0.00 72 1015.5
20260830194511 23 260 0.0 6.4 0.00 0.00 0.00 71 1015.7
20260830193010 23 168 1.6 11.3 0.00 0.00 0.00 71 1015.9
20260830191510 23 209 0.0 9.7 0.00 0.00 0.00 71 1016.0
20260830190005 22 291 3.2 17.7 0.00 0.00 0.00 71 1016.2
20260830184506 22 194 4.8 14.5 0.00 0.00 0.00 71 1016.3
20260830183100 22 273 0.0 6.4 0.00 0.00 0.00 71 1016.4
20260830181606 22 169 0.0 0.0 0.00 0.00 0.00 72 1016.6
20260830180058 22 195 0.0 0.0 0.00 0.00 0.00 72 1016.7
20260830174613 22 244 0.0 0.0 0.00 0.00 0.00 71 1017.0
20260830173109 22 205 0.0 0.0 0.00 0.00 0.00 71 1017.0
20260830171554 21 205 0.0 0.0 0.00 0.00 0.00 70 1017.3
20260830170049 21 196 0.0 1.6 0.00 0.00 0.00 72 1017.4
20260830164547 21 286 0.0 0.0 0.00 0.00 0.00 73 1017.6
20260830163043 20 236 0.0 8.0 0.00 0.00 0.00 74 1017.8
20260830161539 20 163 0.0 4.8 0.00 0.00 0.00 77 1017.9
20260830160036 19 286 0.0 8.0 0.00 0.00 0.00 76 1018.1
20260830154533 18 207 0.0 0.0 0.00 0.00 0.00 78 1018.3
20260830153033 18 219 0.0 0.0 0.00 0.00 0.00 81 1018.6